User: anonymous   Login
Location: NJAA Observatory
(40.6819°N, 74.8979°W)
Time: 08:20:54
(UTC-04:00)
Language:

Cosmos 2237 Rocket - Orbit

View from above orbital plane
View from above orbital plane
View from above satellite
View from above satellite

Ground track
Ground track

The orbit data is extracted from the following two-line orbital elements,

1 22566U 93016B   17266.82629757  .00000152  00000-0  10332-3 0  9998
2 22566  71.0074 219.8721 0011325 332.3872  27.6647 14.14953317265229
Epoch (UTC): 23 September 2017 19:49:52
Eccentricity: 0.0011325
inclination: 71.0074°
perigee height: 834 km
apogee height: 850 km
right ascension of ascending node: 219.8721°
argument of perigee: 332.3872°
revolutions per day: 14.14953317
mean anomaly at epoch: 27.6647°
orbit number at epoch: 26522

The dashed part of the orbit path shows where the satellite is in the earth's shadow,  

DLR